map of CNF home
Great Circle Mapper logo
CNF - Airport
Location
City:  Belo Horizonte, Minas Gerais, Brazil
Name:Tancredo Neves International Airport
Old (Alt.):Confins International Airport
ICAO:SBCF
IATA:CNF

Details
Type:Airport (Aerodrome, Airfield)
Use:Public/Civil, International (customs port of entry)
Latitude:1938'01"S (-19.633749)
Longitude:4358'08"W (-43.968855)
Datum:WGS 1984
Elevation:2715 ft (828 m)
Variation:22.69W (WMM2015 magnetic declination)
-0.09 annual change
Runways:1
Longest:9843 × 148 ft (3000 × 45 m), paved

Time
Time Zone:UTC-3 (DST-2)
Local Time:

Weather
METAR:SBCF 271800Z 05008KT CAVOK 25/10 Q1019
TAF:SBCF 271100Z 2712/2812 07005KT CAVOK TX26/2718Z TN13/2809Z
BECMG 2716/2718 09008KT
BECMG 2803/2805 10005KT
RMK PDS

Related Locations
Nearby:
Farthest:IWO: 11948 mi / 19228 km
Iwo Jima [Iwo Jima AB], Iwo Jima Island, 13, JP

Find:

   beyond  
but within

Other Information
Maps:
NOTAMs:
Links:
Sources:

  
flag of Brazil
flag of Minas Gerais
  

Sectional Chart

Flight Planning
at skyvector.com

Satellite Image

Google Maps Satellite view

 

Copyright © 2004-2016 Karl L. Swartz. All rights reserved.
The Great Circle Mapper name and logo are trademarks of the Great Circle Mapper.
All other trademarks mentioned herein belong to their respective owners.
Please see credits for attibutions and further copyright information.

  Follow gcmap on Facebook Follow gcmap on Twitter Follow gcmap on Google+ GCmap on LinkedIn

hCard Microformat

Geo Microformat